STARLINK-34877

Satellite information

Favourite Embed

Satellite Type and Status

PAYLOADIN ORBIT

Key statistics

Satellite STARLINK-34877 at a glance.

Uptime

30

Days in orbit

Revolutions

≈ 15.4

Per day

Orbit

LEO

Low Earth Orbit

Inclination

53.2

Latest

Satellite identification and parameters

Extended collection of information and parameters for STARLINK-34877.

Object identification

Identified? True

Debris? False

Object name: STARLINK-34877

International designator: 2025-210J

Object number (NORAD): 65630

Object ID (CCSDS): 65630

Country: UNITED STATES OF AMERICA (US)

Current information (Y/N): Y

Orbital parameters

Period: 93.526 minutes

Inclination: 53.1599 deg

SMA: 6825.219 km

Apoapsis: 449.329 km

Periapsis: 444.838 km

RAAN: 252.319 deg

Eccentricy: 0.00032906

Argument of periapsis: 115.4142 deg

Mean anomaly: 244.7204 deg

Mean motion: 15.39670965 rev/day

Mean motion (dot): 0.00072213 rev/day2

B* drag term: 0.0017950653 1/REarth

Two-line elements (TLE)

Creation date: Oct. 18, 2025, 2:17 a.m.

Reference frame: TEME

Reference center: EARTH

Epoch: Oct. 17, 2025, 10:16 p.m. UTC

TLE line 0: 0 STARLINK-34877

TLE line 1: 1 65630U 25210J 25290.92787006 .00072213 00000-0 17951-2 0 9997

TLE line 2: 2 65630 53.1599 252.3190 0003291 115.4142 244.7204 15.39670965 5840

Live tracking on map

Real-time ground track for satellite STARLINK-34877.

In-orbit conjunctions

There are no conjunctions computed for STARLINK-34877, at the moment. Check back to stay up to date, as we update our databases every day.

Go to all conjunctions

Associated space launch

A batch of 28 satellites for the Starlink mega-constellation - SpaceX's project for space-based Internet communication system.

STARLINK-34877 was lifted into orbit during the mission ‘Falcon 9 Block 5 | Starlink Group 10-61’, on board a Falcon 9 space rocket.

The launch took place on Sept. 18, 2025, 9:30 a.m. from Space Launch Complex 40.

For more information about the launch, click the button.

Launch to space Falcon 9 Block 5 | Starlink Group 10-61
Falcon 9 Block 5 | Starlink Group 10-61

Agency: SpaceX

Status: Launch Successful

Launch date: Sept. 18, 2025, 9:30 a.m. UTC

Rocket: Falcon 9

Launch pad: Space Launch Complex 40

Location: Cape Canaveral SFS, FL, USA

...

Latest news about this satellite

News about space launch
Live coverage: SpaceX to launch 28 Starlink satellites on Falcon 9 rocket from Cape Canaveral

The Falcon 9 rocket supporting the Starlink 10-61 mission will fly on a north-easterly trajectory upon departing Florida’s Space Coast. SpaceX is targeting liftoff from pad 40 at Cape Canaveral Space Force Station at 5:30 a.m. EDT (0930 UTC).

News about space launch
Launch Roundup: Starlink, NRO, and New Shepard missions scheduled

Another busy week of launches has arrived, with SpaceX dominating the launch manifest with four… The post Launch Roundup: Starlink, NRO, and New Shepard missions scheduled appeared first on NASASpaceFlight.com.


Newsletter sign-up

Weekly statistics, charts and insights to help you stay on top of the space industry.